Year,Month,Day,Hour,Minute,Value (Times are PST for temperature in C)
2015,05,21,00,00,14.00
2015,05,21,00,01,13.90
2015,05,21,00,02,13.90
2015,05,21,00,03,13.90
2015,05,21,00,04,13.90
2015,05,21,00,05,13.80
2015,05,21,00,06,13.80
2015,05,21,00,07,13.80
2015,05,21,00,08,13.80
2015,05,21,00,09,13.80
2015,05,21,00,10,13.80
2015,05,21,00,11,13.80
2015,05,21,00,12,13.80
2015,05,21,00,13,13.70
2015,05,21,00,14,13.70
2015,05,21,00,15,13.70
2015,05,21,00,16,13.70
2015,05,21,00,17,13.70
2015,05,21,00,18,13.70
2015,05,21,00,19,13.70
2015,05,21,00,20,13.70
2015,05,21,00,21,13.70
2015,05,21,00,22,13.70
2015,05,21,00,23,13.80
2015,05,21,00,24,13.80
2015,05,21,00,25,13.80
2015,05,21,00,26,13.80
2015,05,21,00,27,13.80
2015,05,21,00,28,13.80
2015,05,21,00,29,13.80
2015,05,21,00,30,13.90
2015,05,21,00,31,13.90
2015,05,21,00,32,13.90
2015,05,21,00,33,13.90
2015,05,21,00,34,13.90
2015,05,21,00,35,13.90
2015,05,21,00,36,13.90
2015,05,21,00,37,13.90
2015,05,21,00,38,13.90
2015,05,21,00,39,13.90
2015,05,21,00,40,13.90
2015,05,21,00,41,13.90
2015,05,21,00,42,13.90
2015,05,21,00,43,13.90
2015,05,21,00,44,13.90
2015,05,21,00,45,13.90
2015,05,21,00,46,13.90
2015,05,21,00,47,13.90
2015,05,21,00,48,13.90
2015,05,21,00,49,13.90
2015,05,21,00,50,13.90
2015,05,21,00,51,13.90
2015,05,21,00,52,13.90
2015,05,21,00,53,13.90
2015,05,21,00,54,14.00
2015,05,21,00,55,14.00
2015,05,21,00,56,14.00
2015,05,21,00,57,14.00
2015,05,21,00,58,14.00
2015,05,21,00,59,14.00
2015,05,21,01,00,14.10
2015,05,21,01,01,14.10
2015,05,21,01,02,14.00
2015,05,21,01,03,14.00
2015,05,21,01,04,13.90
2015,05,21,01,05,13.90
2015,05,21,01,06,13.80
2015,05,21,01,07,13.80
2015,05,21,01,08,13.80
2015,05,21,01,09,13.70
2015,05,21,01,10,13.70
2015,05,21,01,11,13.70
2015,05,21,01,12,13.70
2015,05,21,01,13,13.70
2015,05,21,01,14,13.60
2015,05,21,01,15,13.60
2015,05,21,01,16,13.60
2015,05,21,01,17,13.60
2015,05,21,01,18,13.60
2015,05,21,01,19,13.60
2015,05,21,01,20,13.60
2015,05,21,01,21,13.60
2015,05,21,01,22,13.60
2015,05,21,01,23,13.50
2015,05,21,01,24,13.50
2015,05,21,01,25,13.50
2015,05,21,01,26,13.40
2015,05,21,01,27,13.40
2015,05,21,01,28,13.40
2015,05,21,01,29,13.40
2015,05,21,01,30,13.40
2015,05,21,01,31,13.50
2015,05,21,01,32,13.50
2015,05,21,01,33,13.50
2015,05,21,01,34,13.50
2015,05,21,01,35,13.50
2015,05,21,01,36,13.50
2015,05,21,01,37,13.40
2015,05,21,01,38,13.40
2015,05,21,01,39,13.40
2015,05,21,01,40,13.40
2015,05,21,01,41,13.40
2015,05,21,01,42,13.40
2015,05,21,01,43,13.40
2015,05,21,01,44,13.40
2015,05,21,01,45,13.30
2015,05,21,01,46,13.30
2015,05,21,01,47,13.30
2015,05,21,01,48,13.30
2015,05,21,01,49,13.30
2015,05,21,01,50,13.30
2015,05,21,01,51,13.30
2015,05,21,01,52,13.30
2015,05,21,01,53,13.30
2015,05,21,01,54,13.30
2015,05,21,01,55,13.30
2015,05,21,01,56,13.30
2015,05,21,01,57,13.30
2015,05,21,01,58,13.30
2015,05,21,06,12,11.50
2015,05,21,06,13,11.60
2015,05,21,06,14,11.60
2015,05,21,06,15,11.70
2015,05,21,06,16,11.70
2015,05,21,06,17,11.70
2015,05,21,06,18,11.70
2015,05,21,06,19,11.70
2015,05,21,06,20,11.70
2015,05,21,06,21,11.70
2015,05,21,06,22,11.80
2015,05,21,06,23,11.80
2015,05,21,06,24,11.80
2015,05,21,06,25,11.90
2015,05,21,06,26,11.90
2015,05,21,06,27,11.90
2015,05,21,06,28,12.00
2015,05,21,06,29,12.00
2015,05,21,06,30,12.10
2015,05,21,06,31,12.10
2015,05,21,06,32,12.20
2015,05,21,06,33,12.20
2015,05,21,06,34,12.30
2015,05,21,06,35,12.30
2015,05,21,06,36,12.40
2015,05,21,06,37,12.40
2015,05,21,06,38,12.50
2015,05,21,06,39,12.50
2015,05,21,06,40,12.50
2015,05,21,06,41,12.60
2015,05,21,06,42,12.70
2015,05,21,06,43,12.80
2015,05,21,06,44,12.80
2015,05,21,06,45,12.90
2015,05,21,06,46,13.00
2015,05,21,06,47,13.10
2015,05,21,06,48,13.20
2015,05,21,06,49,13.20
2015,05,21,06,50,13.20
2015,05,21,06,51,13.30
2015,05,21,06,52,13.30
2015,05,21,06,53,13.40
2015,05,21,06,54,13.40
2015,05,21,06,55,13.50
2015,05,21,06,56,13.60
2015,05,21,06,57,13.60
2015,05,21,06,58,13.70
2015,05,21,06,59,13.70
2015,05,21,07,00,13.70
2015,05,21,07,01,13.80
2015,05,21,07,02,13.80
2015,05,21,07,03,13.80
2015,05,21,07,04,13.90
2015,05,21,07,05,13.90
2015,05,21,07,06,14.00
2015,05,21,07,07,14.10
2015,05,21,07,08,14.10
2015,05,21,07,09,14.20
2015,05,21,07,10,14.20
2015,05,21,07,11,14.30
2015,05,21,07,12,14.30
2015,05,21,07,13,14.40
2015,05,21,07,14,14.40
2015,05,21,07,15,14.40
2015,05,21,07,16,14.40
2015,05,21,07,17,14.40
2015,05,21,07,18,14.40
2015,05,21,07,19,14.50
2015,05,21,07,20,14.60
2015,05,21,07,21,14.70
2015,05,21,07,22,14.70
2015,05,21,07,23,14.80
2015,05,21,07,24,14.80
2015,05,21,07,25,14.90
2015,05,21,07,26,14.90
2015,05,21,07,27,15.00
2015,05,21,07,28,15.10
2015,05,21,07,29,15.20
2015,05,21,07,30,15.20
2015,05,21,07,31,15.30
2015,05,21,07,32,15.40
2015,05,21,07,33,15.50
2015,05,21,07,34,15.60
2015,05,21,07,35,15.70
2015,05,21,07,36,15.70
2015,05,21,07,37,15.80
2015,05,21,07,38,15.90
2015,05,21,07,39,16.00
2015,05,21,07,40,16.10
2015,05,21,07,41,16.20
2015,05,21,07,42,16.30
2015,05,21,07,43,16.40
2015,05,21,07,44,16.40
2015,05,21,07,45,16.50
2015,05,21,07,46,16.60
2015,05,21,07,47,16.70
2015,05,21,07,48,16.80
2015,05,21,07,49,16.90
2015,05,21,07,50,17.00
2015,05,21,07,51,17.10
2015,05,21,07,52,17.20
2015,05,21,07,53,17.30
2015,05,21,07,54,17.40
2015,05,21,07,55,17.40
2015,05,21,07,56,17.40
2015,05,21,07,57,17.40
2015,05,21,07,58,17.40
2015,05,21,07,59,17.40
2015,05,21,08,00,17.40
2015,05,21,08,01,17.40
2015,05,21,08,02,17.40
2015,05,21,08,03,17.50
2015,05,21,08,04,17.50
2015,05,21,08,05,17.60
2015,05,21,08,06,17.70
2015,05,21,08,07,17.70
2015,05,21,08,08,17.70
2015,05,21,08,09,17.80
2015,05,21,08,10,17.80
2015,05,21,08,11,17.90
2015,05,21,08,12,18.00
2015,05,21,08,13,18.00
2015,05,21,08,14,18.10
2015,05,21,08,15,18.10
2015,05,21,08,16,18.10
2015,05,21,08,17,18.20
2015,05,21,08,18,18.20
2015,05,21,08,19,18.20
2015,05,21,08,20,18.20
2015,05,21,08,21,18.20
2015,05,21,08,22,18.20
2015,05,21,08,23,18.20
2015,05,21,08,24,18.30
2015,05,21,08,25,18.40
2015,05,21,08,26,18.50
2015,05,21,08,27,18.60
2015,05,21,08,28,18.70
2015,05,21,08,29,18.70
2015,05,21,08,30,18.80
2015,05,21,08,31,18.80
2015,05,21,08,32,18.90
2015,05,21,08,33,18.90
2015,05,21,08,34,19.00
2015,05,21,08,35,19.00
2015,05,21,08,36,19.00
2015,05,21,08,37,19.00
2015,05,21,08,38,19.00
2015,05,21,08,39,19.10
2015,05,21,08,40,19.10
2015,05,21,08,41,19.10
2015,05,21,08,42,19.20
2015,05,21,08,43,19.30
2015,05,21,08,44,19.40
2015,05,21,08,45,19.50
2015,05,21,08,46,19.50
2015,05,21,08,47,19.60
2015,05,21,08,48,19.60
2015,05,21,08,49,19.60
2015,05,21,08,50,19.60
2015,05,21,08,51,19.70
2015,05,21,08,52,19.70
2015,05,21,08,53,19.70
2015,05,21,08,54,19.70
2015,05,21,08,55,19.70
2015,05,21,08,56,19.70
2015,05,21,08,57,19.70
2015,05,21,08,58,19.70
2015,05,21,08,59,19.60
2015,05,21,09,00,19.60
2015,05,21,09,01,19.50
2015,05,21,09,02,19.50
2015,05,21,09,03,19.40
2015,05,21,09,04,19.40
2015,05,21,09,05,19.40
2015,05,21,09,06,19.50
2015,05,21,09,07,19.50
2015,05,21,09,08,19.60
2015,05,21,09,09,19.50
2015,05,21,09,10,19.50
2015,05,21,09,11,19.50
2015,05,21,09,12,19.60
2015,05,21,09,13,19.60
2015,05,21,09,14,19.60
2015,05,21,09,15,19.70
2015,05,21,09,16,19.70
2015,05,21,09,17,19.80
2015,05,21,09,18,19.90
2015,05,21,09,19,20.00
2015,05,21,09,20,20.20
2015,05,21,09,21,20.30
2015,05,21,09,22,20.40
2015,05,21,09,23,20.40
2015,05,21,09,24,20.40
2015,05,21,09,25,20.40
2015,05,21,09,26,20.30
2015,05,21,09,27,20.20
2015,05,21,09,28,20.10
2015,05,21,09,29,20.00
2015,05,21,09,30,19.90
2015,05,21,09,31,19.90
2015,05,21,09,32,19.70
2015,05,21,09,33,19.70
2015,05,21,09,34,19.60
2015,05,21,09,35,19.60
2015,05,21,09,36,19.60
2015,05,21,09,37,19.60
2015,05,21,09,38,19.60
2015,05,21,09,39,19.70
2015,05,21,09,40,19.80
2015,05,21,09,41,19.80
2015,05,21,09,42,19.90
2015,05,21,09,43,19.90
2015,05,21,09,44,20.00
2015,05,21,09,45,20.10
2015,05,21,09,46,20.30
2015,05,21,09,47,20.40
2015,05,21,09,48,20.40
2015,05,21,09,49,20.50
2015,05,21,09,50,20.50
2015,05,21,09,51,20.60
2015,05,21,09,52,20.60
2015,05,21,09,53,20.60
2015,05,21,09,54,20.70
2015,05,21,09,55,20.70
2015,05,21,09,56,20.70
2015,05,21,09,57,20.50
2015,05,21,09,58,20.50
2015,05,21,09,59,20.40
2015,05,21,10,00,20.40
2015,05,21,10,01,20.50
2015,05,21,10,02,20.60
2015,05,21,10,03,20.60
2015,05,21,10,04,20.60
2015,05,21,10,05,20.60
2015,05,21,10,06,20.70
2015,05,21,10,07,20.80
2015,05,21,10,08,20.90
2015,05,21,10,09,21.10
2015,05,21,10,10,21.10
2015,05,21,10,11,21.00
2015,05,21,10,12,20.90
2015,05,21,10,13,20.90
2015,05,21,10,14,20.90
2015,05,21,10,15,20.90
2015,05,21,10,16,20.80
2015,05,21,10,17,20.70
2015,05,21,10,18,20.70
2015,05,21,10,19,20.70
2015,05,21,10,20,20.70
2015,05,21,10,21,20.70
2015,05,21,10,22,20.70
2015,05,21,10,23,20.70
2015,05,21,10,24,20.60
2015,05,21,10,25,20.60
2015,05,21,10,26,20.50
2015,05,21,10,27,20.40
2015,05,21,10,28,20.50
2015,05,21,10,29,20.50
2015,05,21,10,30,20.60
2015,05,21,10,31,20.60
2015,05,21,10,32,20.70
2015,05,21,10,33,20.80
2015,05,21,10,34,20.80
2015,05,21,10,35,20.60
2015,05,21,10,36,20.50
2015,05,21,10,37,20.40
2015,05,21,10,38,20.30
2015,05,21,10,39,20.30
2015,05,21,10,40,20.20
2015,05,21,10,41,20.20
2015,05,21,10,42,20.30
2015,05,21,10,43,20.40
2015,05,21,10,44,20.40
2015,05,21,10,45,20.30
2015,05,21,10,46,20.30
2015,05,21,10,47,20.40
2015,05,21,10,48,20.40
2015,05,21,10,49,20.40
2015,05,21,10,50,20.50
2015,05,21,10,51,20.70
2015,05,21,10,52,20.80
2015,05,21,10,53,20.90
2015,05,21,10,54,20.90
2015,05,21,10,55,20.90
2015,05,21,10,56,21.00
2015,05,21,10,57,21.00
2015,05,21,10,58,21.10
2015,05,21,10,59,21.00
2015,05,21,11,00,20.90
2015,05,21,11,01,20.70
2015,05,21,11,02,20.70
2015,05,21,11,03,20.70
2015,05,21,11,04,20.80
2015,05,21,11,05,20.90
2015,05,21,11,06,20.90
2015,05,21,11,07,20.80
2015,05,21,11,08,20.80
2015,05,21,11,09,20.80
2015,05,21,11,10,20.70
2015,05,21,11,11,20.80
2015,05,21,11,12,20.80
2015,05,21,11,13,20.70
2015,05,21,11,14,20.70
2015,05,21,11,15,20.80
2015,05,21,11,16,20.80
2015,05,21,11,17,20.70
2015,05,21,11,18,20.60
2015,05,21,11,19,20.50
2015,05,21,11,20,20.40
2015,05,21,11,21,20.40
2015,05,21,11,22,20.40
2015,05,21,11,23,20.30
2015,05,21,11,24,20.30
2015,05,21,11,25,20.30
2015,05,21,11,26,20.30
2015,05,21,11,27,20.40
2015,05,21,11,28,20.50
2015,05,21,11,29,20.60
2015,05,21,11,30,20.60
2015,05,21,11,31,20.70
2015,05,21,11,32,20.80
2015,05,21,11,33,20.90
2015,05,21,11,34,20.80
2015,05,21,11,35,20.70
2015,05,21,11,36,20.60
2015,05,21,11,37,20.60
2015,05,21,11,38,20.60
2015,05,21,11,39,20.60
2015,05,21,11,40,20.70
2015,05,21,11,41,20.70
2015,05,21,11,42,20.60
2015,05,21,11,43,20.60
2015,05,21,11,44,20.50
2015,05,21,11,45,20.40
2015,05,21,11,46,20.40
2015,05,21,11,47,20.50
2015,05,21,11,48,20.40
2015,05,21,11,49,20.40
2015,05,21,11,50,20.40
2015,05,21,11,51,20.40
2015,05,21,11,52,20.50
2015,05,21,11,53,20.50
2015,05,21,11,54,20.60
2015,05,21,11,55,20.60
2015,05,21,11,56,20.70
2015,05,21,11,57,20.70
2015,05,21,11,58,20.80
2015,05,21,11,59,20.80
2015,05,21,12,00,20.80
2015,05,21,12,01,20.90
2015,05,21,12,02,20.90
2015,05,21,12,03,20.90
2015,05,21,12,04,20.90
2015,05,21,12,05,20.90
2015,05,21,12,06,20.90
2015,05,21,12,07,20.90
2015,05,21,12,08,20.80
2015,05,21,12,09,20.80
2015,05,21,12,10,20.70
2015,05,21,12,11,20.70
2015,05,21,12,12,20.80
2015,05,21,12,13,20.80
2015,05,21,12,14,20.80
2015,05,21,12,15,20.80
2015,05,21,12,16,20.80
2015,05,21,12,17,20.90
2015,05,21,12,18,20.90
2015,05,21,12,19,20.90
2015,05,21,12,20,20.90
2015,05,21,12,21,21.00
2015,05,21,12,22,21.10
2015,05,21,12,23,21.00
2015,05,21,12,24,21.00
2015,05,21,12,25,21.00
2015,05,21,12,26,20.90
2015,05,21,12,27,21.00
2015,05,21,12,28,21.00
2015,05,21,12,29,21.10
2015,05,21,12,30,21.10
2015,05,21,12,31,21.10
2015,05,21,12,32,21.20
2015,05,21,12,33,21.20
2015,05,21,12,34,21.30
2015,05,21,12,35,21.30
2015,05,21,12,36,21.30
2015,05,21,12,37,21.40
2015,05,21,12,38,21.40
2015,05,21,12,39,21.40
2015,05,21,12,40,21.40
2015,05,21,12,41,21.40
2015,05,21,12,42,21.50
2015,05,21,12,43,21.60
2015,05,21,12,44,21.60
2015,05,21,12,45,21.70
2015,05,21,12,46,21.80
2015,05,21,12,47,21.80
2015,05,21,12,48,21.80
2015,05,21,12,49,21.70
2015,05,21,12,50,21.70
2015,05,21,12,51,21.70
2015,05,21,12,52,21.80
2015,05,21,12,53,21.80
2015,05,21,12,54,21.80
2015,05,21,12,55,21.80
2015,05,21,12,56,21.80
2015,05,21,12,57,21.70
2015,05,21,12,58,21.70
2015,05,21,12,59,21.60
2015,05,21,13,00,21.60
2015,05,21,13,01,21.70
2015,05,21,13,02,21.70
2015,05,21,13,03,21.80
2015,05,21,13,04,21.80
2015,05,21,13,05,21.80
2015,05,21,13,06,21.70
2015,05,21,13,07,21.70
2015,05,21,13,08,21.60
2015,05,21,13,09,21.70
2015,05,21,13,10,21.80
2015,05,21,13,11,21.80
2015,05,21,13,12,21.90
2015,05,21,13,13,22.00
2015,05,21,13,14,22.10
2015,05,21,13,15,22.20
2015,05,21,13,16,22.20
2015,05,21,13,17,22.30
2015,05,21,13,18,22.30
2015,05,21,13,19,22.30
2015,05,21,13,20,22.30
2015,05,21,13,21,22.30
2015,05,21,13,22,22.30
2015,05,21,13,23,22.30
2015,05,21,13,24,22.30
2015,05,21,13,25,22.30
2015,05,21,13,26,22.30
2015,05,21,13,27,22.30
2015,05,21,13,28,22.30
2015,05,21,13,29,22.40
2015,05,21,13,30,22.50
2015,05,21,13,31,22.40
2015,05,21,13,32,22.40
2015,05,21,13,33,22.50
2015,05,21,13,34,22.60
2015,05,21,13,35,22.70
2015,05,21,13,36,22.70
2015,05,21,13,37,22.70
2015,05,21,13,38,22.60
2015,05,21,13,39,22.60
2015,05,21,13,40,22.70
2015,05,21,13,41,22.80
2015,05,21,13,42,22.90
2015,05,21,13,43,23.00
2015,05,21,13,44,23.00
2015,05,21,13,45,23.00
2015,05,21,13,46,23.00
2015,05,21,13,47,23.10
2015,05,21,13,48,23.00
2015,05,21,13,49,23.10
2015,05,21,13,50,23.00
2015,05,21,13,51,23.00
2015,05,21,13,52,23.10
2015,05,21,13,53,23.10
2015,05,21,13,54,23.10
2015,05,21,13,55,23.10
2015,05,21,13,56,23.10
2015,05,21,13,57,23.10
2015,05,21,13,58,23.10
2015,05,21,13,59,23.10
2015,05,21,14,00,23.20
2015,05,21,14,01,23.20
2015,05,21,14,02,23.30
2015,05,21,14,03,23.40
2015,05,21,14,04,23.40
2015,05,21,14,05,23.50
2015,05,21,14,06,23.50
2015,05,21,14,07,23.40
2015,05,21,14,08,23.30
2015,05,21,14,09,23.20
2015,05,21,14,10,23.30
2015,05,21,14,11,23.40
2015,05,21,14,12,23.40
2015,05,21,14,13,23.50
2015,05,21,14,14,23.50
2015,05,21,14,15,23.40
2015,05,21,14,16,23.30
2015,05,21,14,17,23.40
2015,05,21,14,18,23.40
2015,05,21,14,19,23.50
2015,05,21,14,20,23.40
2015,05,21,14,21,23.30
2015,05,21,14,22,23.20
2015,05,21,14,23,23.20
2015,05,21,14,24,23.20
2015,05,21,14,25,23.20
2015,05,21,14,26,23.20
2015,05,21,14,27,23.20
2015,05,21,14,28,23.20
2015,05,21,14,29,23.20
2015,05,21,14,30,23.20
2015,05,21,14,31,23.30
2015,05,21,14,32,23.30
2015,05,21,14,33,23.20
2015,05,21,14,34,23.20
2015,05,21,14,35,23.10
2015,05,21,14,36,23.00
2015,05,21,14,37,22.90
2015,05,21,14,38,22.90
2015,05,21,14,39,23.00
2015,05,21,14,40,23.00
2015,05,21,14,41,22.90
2015,05,21,14,42,22.90
2015,05,21,14,43,23.00
2015,05,21,14,44,23.10
2015,05,21,14,45,23.10
2015,05,21,14,46,23.00
2015,05,21,14,47,22.90
2015,05,21,14,48,22.80
2015,05,21,14,49,22.60
2015,05,21,14,50,22.60
2015,05,21,14,51,22.50
2015,05,21,14,52,22.50
2015,05,21,14,53,22.40
2015,05,21,14,54,22.20
2015,05,21,14,55,22.20
2015,05,21,14,56,22.10
2015,05,21,14,57,22.10
2015,05,21,14,58,22.10
2015,05,21,14,59,22.10
2015,05,21,15,00,22.00
2015,05,21,15,01,22.00
2015,05,21,15,02,21.90
2015,05,21,15,03,21.90
2015,05,21,15,04,21.80
2015,05,21,15,05,21.90
2015,05,21,15,06,21.90
2015,05,21,15,07,21.90
2015,05,21,15,08,21.90
2015,05,21,15,09,21.80
2015,05,21,15,10,21.80
2015,05,21,15,11,21.70
2015,05,21,15,12,21.70
2015,05,21,15,13,21.70
2015,05,21,15,14,21.70
2015,05,21,15,15,21.70
2015,05,21,15,16,21.80
2015,05,21,15,17,21.80
2015,05,21,15,18,21.90
2015,05,21,15,19,21.90
2015,05,21,15,20,21.90
2015,05,21,15,21,21.90
2015,05,21,15,22,21.90
2015,05,21,15,23,22.00
2015,05,21,15,24,22.10
2015,05,21,15,25,22.20
2015,05,21,15,26,22.30
2015,05,21,15,27,22.30
2015,05,21,15,28,22.30
2015,05,21,15,29,22.30
2015,05,21,15,30,22.40
2015,05,21,15,31,22.40
2015,05,21,15,32,22.50
2015,05,21,15,33,22.60
2015,05,21,15,34,22.70
2015,05,21,15,35,22.80
2015,05,21,15,36,23.00
2015,05,21,15,37,23.10
2015,05,21,15,38,23.20
2015,05,21,15,39,23.20
2015,05,21,15,40,23.20
2015,05,21,15,41,23.30
2015,05,21,15,42,23.30
2015,05,21,15,43,23.40
2015,05,21,15,44,23.50
2015,05,21,15,45,23.60
2015,05,21,15,46,23.70
2015,05,21,15,47,23.80
2015,05,21,15,48,23.90
2015,05,21,15,49,24.00
2015,05,21,15,50,24.10
2015,05,21,15,51,24.20
2015,05,21,15,52,24.20
2015,05,21,15,53,24.20
2015,05,21,15,54,24.20
2015,05,21,15,55,24.10
2015,05,21,15,56,24.10
2015,05,21,15,57,24.00
2015,05,21,15,58,23.90
2015,05,21,15,59,23.90
2015,05,21,16,00,23.90
2015,05,21,16,01,23.80
2015,05,21,16,02,23.80
2015,05,21,16,03,23.80
2015,05,21,16,04,23.80
2015,05,21,16,05,23.90
2015,05,21,16,06,23.80
2015,05,21,16,07,23.80
2015,05,21,16,08,23.70
2015,05,21,16,09,23.60
2015,05,21,16,10,23.50
2015,05,21,16,11,23.40
2015,05,21,16,12,23.40
2015,05,21,16,13,23.40
2015,05,21,16,14,23.30
2015,05,21,16,15,23.30
2015,05,21,16,16,23.30
2015,05,21,16,17,23.30
2015,05,21,16,18,23.30
2015,05,21,16,19,23.30
2015,05,21,16,20,23.20
2015,05,21,16,21,23.20
2015,05,21,16,22,23.30
2015,05,21,16,23,23.30
2015,05,21,16,24,23.30
2015,05,21,16,25,23.40
2015,05,21,16,26,23.50
2015,05,21,16,27,23.60
2015,05,21,16,28,23.70
2015,05,21,16,29,23.80
2015,05,21,16,30,23.80
2015,05,21,16,31,23.80
2015,05,21,16,32,23.80
2015,05,21,16,33,23.80
2015,05,21,16,34,23.90
2015,05,21,16,35,23.90
2015,05,21,16,36,23.90
2015,05,21,16,37,24.00
2015,05,21,16,38,24.00
2015,05,21,16,39,24.10
2015,05,21,16,40,24.20
2015,05,21,16,41,24.30
2015,05,21,16,42,24.30
2015,05,21,16,43,24.30
2015,05,21,16,44,24.20
2015,05,21,16,45,24.20
2015,05,21,16,46,24.20
2015,05,21,16,47,24.10
2015,05,21,16,48,24.10
2015,05,21,16,49,24.10
2015,05,21,16,50,24.10
2015,05,21,16,51,24.00
2015,05,21,16,52,24.10
2015,05,21,16,53,24.10
2015,05,21,16,54,24.10
2015,05,21,16,55,24.10
2015,05,21,16,56,24.10
2015,05,21,16,57,24.10
2015,05,21,16,58,24.20
2015,05,21,16,59,24.20
2015,05,21,17,00,24.20
2015,05,21,17,01,24.10
2015,05,21,17,02,24.10
2015,05,21,17,03,24.10
2015,05,21,17,04,24.10
2015,05,21,17,05,24.00
2015,05,21,17,06,24.00
2015,05,21,17,07,23.90
2015,05,21,17,08,23.90
2015,05,21,17,09,23.80
2015,05,21,17,10,23.80
2015,05,21,17,11,23.80
2015,05,21,17,12,23.70
2015,05,21,17,13,23.70
2015,05,21,17,14,23.70
2015,05,21,17,15,23.70
2015,05,21,17,16,23.60
2015,05,21,17,17,23.60
2015,05,21,17,18,23.60
2015,05,21,17,19,23.60
2015,05,21,17,20,23.60
2015,05,21,17,21,23.50
2015,05,21,17,22,23.50
2015,05,21,17,23,23.50
2015,05,21,17,24,23.50
2015,05,21,17,25,23.40
2015,05,21,17,26,23.20
2015,05,21,17,27,23.00
2015,05,21,17,28,22.90
2015,05,21,17,29,22.80
2015,05,21,17,30,22.70
2015,05,21,17,31,22.50
2015,05,21,17,32,22.40
2015,05,21,17,33,22.30
2015,05,21,17,34,22.10
2015,05,21,17,35,22.00
2015,05,21,17,36,21.80
2015,05,21,17,37,21.70
2015,05,21,17,38,21.50
2015,05,21,17,39,21.30
2015,05,21,17,40,21.20
2015,05,21,17,41,21.10
2015,05,21,17,42,21.10
2015,05,21,17,43,21.00
2015,05,21,17,44,20.90
2015,05,21,17,45,20.90
2015,05,21,17,46,20.80
2015,05,21,17,47,20.80
2015,05,21,17,48,20.80
2015,05,21,17,49,20.70
2015,05,21,17,50,20.80
2015,05,21,17,51,20.80
2015,05,21,17,52,20.80
2015,05,21,17,53,20.80
2015,05,21,17,54,20.80
2015,05,21,17,55,20.80
2015,05,21,17,56,20.80
2015,05,21,17,57,20.80
2015,05,21,17,58,20.80
2015,05,21,17,59,20.80
2015,05,21,18,00,20.80
2015,05,21,18,01,20.80
2015,05,21,18,02,20.80
2015,05,21,18,03,20.80
2015,05,21,18,04,20.80
2015,05,21,18,05,20.80
2015,05,21,18,06,20.80
2015,05,21,18,07,20.70
2015,05,21,18,08,20.70
2015,05,21,18,09,20.70
2015,05,21,18,10,20.70
2015,05,21,18,11,20.70
2015,05,21,18,12,20.70
2015,05,21,18,13,20.70
2015,05,21,18,14,20.70
2015,05,21,18,15,20.70
2015,05,21,18,16,20.60
2015,05,21,18,17,20.60
2015,05,21,18,18,20.60
2015,05,21,18,19,20.60
2015,05,21,18,20,20.60
2015,05,21,18,21,20.60
2015,05,21,18,22,20.60
2015,05,21,18,23,20.60
2015,05,21,18,24,20.50
2015,05,21,18,25,20.50
2015,05,21,18,26,20.50
2015,05,21,18,27,20.50
2015,05,21,18,28,20.40
2015,05,21,18,29,20.40
2015,05,21,18,30,20.40
2015,05,21,18,31,20.40
2015,05,21,18,32,20.40
2015,05,21,18,33,20.30
2015,05,21,18,34,20.30
2015,05,21,18,35,20.30
2015,05,21,18,36,20.30
2015,05,21,18,37,20.20
2015,05,21,18,38,20.20
2015,05,21,18,39,20.20
2015,05,21,18,40,20.20
2015,05,21,18,41,20.10
2015,05,21,18,42,20.10
2015,05,21,18,43,20.10
2015,05,21,18,44,20.10
2015,05,21,18,45,20.00
2015,05,21,18,46,20.00
2015,05,21,18,47,19.90
2015,05,21,18,48,19.90
2015,05,21,18,49,19.90
2015,05,21,18,50,19.80
2015,05,21,18,51,19.80
2015,05,21,18,52,19.80
2015,05,21,18,53,19.70
2015,05,21,18,54,19.70
2015,05,21,18,55,19.70
2015,05,21,18,56,19.70
2015,05,21,18,57,19.70
2015,05,21,18,58,19.70
2015,05,21,18,59,19.60
2015,05,21,19,00,19.60
2015,05,21,19,01,19.60
2015,05,21,19,02,19.60
2015,05,21,19,03,19.60
2015,05,21,19,04,19.60
2015,05,21,19,05,19.60
2015,05,21,19,06,19.50
2015,05,21,19,07,19.50
2015,05,21,19,08,19.40
2015,05,21,19,09,19.30
2015,05,21,19,10,19.30
2015,05,21,19,11,19.20
2015,05,21,19,12,19.20
2015,05,21,19,13,19.10
2015,05,21,19,14,19.10
2015,05,21,19,15,19.00
2015,05,21,19,16,19.00
2015,05,21,19,17,18.90
2015,05,21,19,18,18.90
2015,05,21,19,19,18.80
2015,05,21,19,20,18.80
2015,05,21,19,21,18.70
2015,05,21,19,22,18.60
2015,05,21,19,23,18.50
2015,05,21,19,24,18.40
2015,05,21,19,25,18.20
2015,05,21,19,26,18.10
2015,05,21,19,27,18.00
2015,05,21,19,28,17.90
2015,05,21,19,29,17.70
2015,05,21,19,30,17.60
2015,05,21,19,31,17.40
2015,05,21,19,32,17.30
2015,05,21,19,33,17.10
2015,05,21,19,34,17.00
2015,05,21,19,35,16.90
2015,05,21,19,36,16.80
2015,05,21,19,37,16.80
2015,05,21,19,38,16.60
2015,05,21,19,39,16.50
2015,05,21,19,40,16.40
2015,05,21,19,41,16.30
2015,05,21,19,42,16.20
2015,05,21,19,43,16.10
2015,05,21,19,44,16.00
2015,05,21,19,45,15.90
2015,05,21,19,46,15.80
2015,05,21,19,47,15.80
2015,05,21,19,48,15.70
2015,05,21,19,49,15.60
2015,05,21,19,50,15.60
2015,05,21,19,51,15.60
2015,05,21,19,52,15.50
2015,05,21,19,53,15.50
2015,05,21,19,54,15.40
2015,05,21,19,55,15.40
2015,05,21,19,56,15.40
2015,05,21,19,57,15.40
2015,05,21,19,58,15.30
2015,05,21,19,59,15.30
2015,05,21,20,00,15.30
2015,05,21,20,01,15.30
2015,05,21,20,02,15.30
2015,05,21,20,03,15.20
2015,05,21,20,04,15.20
2015,05,21,20,05,15.20
2015,05,21,20,06,15.10
2015,05,21,20,07,15.10
2015,05,21,20,08,15.10
2015,05,21,20,09,15.10
2015,05,21,20,10,15.10
2015,05,21,20,11,15.10
2015,05,21,20,12,15.10
2015,05,21,20,13,15.10
2015,05,21,20,14,15.10
2015,05,21,20,15,15.10
2015,05,21,20,16,15.10
2015,05,21,20,17,15.20
2015,05,21,20,18,15.20
2015,05,21,20,19,15.20
2015,05,21,20,20,15.20
2015,05,21,20,21,15.30
2015,05,21,20,22,15.30
2015,05,21,20,23,15.30
2015,05,21,20,24,15.40
2015,05,21,20,25,15.40
2015,05,21,20,26,15.50
2015,05,21,20,27,15.50
2015,05,21,20,28,15.50
2015,05,21,20,29,15.50
2015,05,21,20,30,15.40
2015,05,21,20,31,15.40
2015,05,21,20,32,15.30
2015,05,21,20,33,15.30
2015,05,21,20,34,15.30
2015,05,21,20,35,15.30
2015,05,21,20,36,15.20
2015,05,21,20,37,15.20
2015,05,21,20,38,15.20
2015,05,21,20,39,15.20
2015,05,21,20,40,15.10
2015,05,21,20,41,15.10
2015,05,21,20,42,15.10
2015,05,21,20,43,15.10
2015,05,21,20,44,15.00
2015,05,21,20,45,15.00
2015,05,21,20,46,15.00
2015,05,21,20,47,15.00
2015,05,21,20,48,15.00
2015,05,21,20,49,15.00
2015,05,21,20,50,15.00
2015,05,21,20,51,14.90
2015,05,21,20,52,14.90
2015,05,21,20,53,14.90
2015,05,21,20,54,14.90
2015,05,21,20,55,14.90
2015,05,21,20,56,14.90
2015,05,21,20,57,14.90
2015,05,21,20,58,14.90
2015,05,21,20,59,14.90
2015,05,21,21,00,14.90
2015,05,21,21,01,14.90
2015,05,21,21,02,14.90
2015,05,21,21,03,14.90
2015,05,21,21,04,14.90
2015,05,21,21,05,15.00
2015,05,21,21,06,15.00
2015,05,21,21,07,14.90
2015,05,21,21,08,14.90
2015,05,21,21,09,15.00
2015,05,21,21,10,14.90
2015,05,21,21,11,14.90
2015,05,21,21,12,14.90
2015,05,21,21,13,15.00
2015,05,21,21,14,15.00
2015,05,21,21,15,15.00
2015,05,21,21,16,15.00
2015,05,21,21,17,14.90
2015,05,21,21,18,14.90
2015,05,21,21,19,14.90
2015,05,21,21,20,14.90
2015,05,21,21,21,14.90
2015,05,21,21,22,14.90
2015,05,21,21,23,14.90
2015,05,21,21,24,14.90
2015,05,21,21,25,14.80
2015,05,21,21,26,14.80
2015,05,21,21,27,14.80
2015,05,21,21,28,14.80
2015,05,21,21,29,14.80
2015,05,21,21,30,14.80
2015,05,21,21,31,14.80
2015,05,21,21,32,14.70